Rockford, IL

5:06 AM CST on December 15, 2017 (GMT -0600)
Greater Rockford

Weather History for KRFD - February, 2013

Change the Weather History Date:

Saturday, February 23, 2013

  Actual Average Record
Temperature  
Mean Temperature 24 °F 29 °F  
Max Temperature 28 °F 37 °F 63 °F (1930)
Min Temperature 20 °F 20 °F -12 °F (1910)
Degree Days  
Heating Degree Days 41 36  
Month to date heating degree days 972 917  
Since 1 July heating degree days 4557 4826  
Cooling Degree Days 0 0  
Month to date cooling degree days 0 0  
Year to date cooling degree days 0 0  
Moisture  
Dew Point 18 °F    
Average Humidity 78    
Maximum Humidity 88    
Minimum Humidity 68    
Precipitation  
Precipitation T in 0.06 in 0.83 in (1925)
Month to date precipitation 2.45 1.10  
Year to date precipitation 5.54 2.47  
Snow  
Snow T in 0.30 in 4.50 in (1994)
Month to date snowfall 15.7 6.6  
Since 1 July snowfall 20.5 29.9  
Snow Depth 4.00 in    
Sea Level Pressure  
Sea Level Pressure 29.96 in    
Wind  
Wind Speed 9 mph (WSW)    
Max Wind Speed 18 mph    
Max Gust Speed 23 mph    
Visibility 10 miles    
Events Snow    
T = Trace of Precipitation, MM = Missing Value Source: NWS Daily Summary

Daily Weather History Graph

Daily Weather History Graph

Search for Another Location

Airport or City:

Trip Planner

Search our weather history database for the weather conditions in past years. The results will help you decide how hot, cold, wet, or windy it might be!

Date:

Astronomy

Feb. 23, 2013 Rise Set
Actual Time 6:40 AM CST 5:39 PM CST
Civil Twilight 6:12 AM CST 6:07 PM CST
Nautical Twilight 5:39 AM CST 6:40 PM CST
Astronomical Twilight 5:07 AM CST 7:12 PM CST
Moon 3:48 PM CST (2/23) 5:04 AM CST (2/23)
Length of Visible Light 11h 55m
Length of Day
10h 58m
Waxing Gibbous, 95% of the Moon is Illuminated
Feb 23
Waxing Gibbous
Feb 25
Full
Mar 4
Last Quarter
Mar 11
New
Mar 19
First Quarter

Hourly Weather History & Observations

Time (CST) Temp. Windchill Dew Point Humidity Pressure Visibility Wind Dir Wind Speed Gust Speed Precip Events Conditions
12:54 AM 26.1 °F 16.8 °F 21.0 °F 81% 29.93 in 8.0 mi WSW 9.2 mph - 0.00 in Snow Light Snow
1:30 AM 24.8 °F 14.0 °F 21.2 °F 86% 29.90 in 8.0 mi West 11.5 mph - 0.00 in Snow Light Snow
1:46 AM 24.8 °F 15.3 °F 21.2 °F 86% 29.90 in 9.0 mi West 9.2 mph - 0.00 in Snow Light Snow
1:54 AM 25.0 °F 14.2 °F 21.0 °F 85% 29.92 in 9.0 mi West 11.5 mph - 0.00 in Snow Light Snow
2:54 AM 24.1 °F 11.0 °F 19.0 °F 81% 29.93 in 9.0 mi West 16.1 mph 19.6 mph 0.00 in Snow Light Snow
3:54 AM 24.1 °F 12.5 °F 19.0 °F 81% 29.93 in 9.0 mi West 12.7 mph - 0.00 in Snow Light Snow
4:54 AM 24.1 °F 11.5 °F 18.0 °F 77% 29.94 in 9.0 mi West 15.0 mph - 0.00 in Snow Light Snow
5:54 AM 23.0 °F 10.6 °F 18.0 °F 81% 29.95 in 9.0 mi West 13.8 mph - 0.00 in Snow Light Snow
6:47 AM 23.0 °F 11.1 °F 17.6 °F 80% 29.93 in 8.0 mi West 12.7 mph - 0.00 in Snow Light Snow
6:54 AM 23.0 °F 12.4 °F 18.0 °F 81% 29.96 in 8.0 mi West 10.4 mph - 0.00 in Snow Light Snow
7:54 AM 23.0 °F 11.7 °F 18.0 °F 81% 29.96 in 10.0 mi WSW 11.5 mph - 0.00 in Snow Light Snow
8:54 AM 23.0 °F 9.6 °F 16.0 °F 74% 29.96 in 9.0 mi West 16.1 mph - 0.00 in   Overcast
9:54 AM 23.0 °F 10.6 °F 16.0 °F 74% 29.96 in 9.0 mi West 13.8 mph 20.7 mph N/A   Overcast
10:54 AM 25.0 °F 12.6 °F 16.0 °F 69% 29.97 in 10.0 mi West 15.0 mph 19.6 mph N/A   Overcast
11:54 AM 26.1 °F 16.2 °F 17.1 °F 69% 29.96 in 10.0 mi West 10.4 mph - N/A   Mostly Cloudy
12:54 PM 26.1 °F 15.6 °F 17.1 °F 69% 29.95 in 10.0 mi West 11.5 mph - N/A   Mostly Cloudy
1:54 PM 27.0 °F 16.7 °F 18.0 °F 69% 29.95 in 10.0 mi WSW 11.5 mph - N/A   Mostly Cloudy
2:54 PM 27.0 °F 17.3 °F 17.1 °F 66% 29.94 in 10.0 mi West 10.4 mph - 0.00 in   Mostly Cloudy
3:54 PM 27.0 °F 18.7 °F 18.0 °F 69% 29.95 in 10.0 mi SW 8.1 mph - N/A   Mostly Cloudy
4:54 PM 26.1 °F 17.6 °F 18.0 °F 71% 29.95 in 10.0 mi WSW 8.1 mph - 0.00 in   Mostly Cloudy
5:54 PM 25.0 °F 18.1 °F 18.0 °F 75% 29.97 in 10.0 mi WSW 5.8 mph - N/A   Mostly Cloudy
6:54 PM 24.1 °F 15.2 °F 16.0 °F 71% 29.98 in 10.0 mi WSW 8.1 mph - N/A   Mostly Cloudy
7:54 PM 21.9 °F 15.7 °F 15.1 °F 75% 29.99 in 10.0 mi SW 4.6 mph - N/A   Mostly Cloudy
8:54 PM 21.0 °F - 16.0 °F 81% 30.00 in 10.0 mi Calm Calm - N/A   Overcast
9:54 PM 21.0 °F - 16.0 °F 81% 30.00 in 10.0 mi Calm Calm - N/A   Overcast
10:54 PM 21.0 °F 16.2 °F 15.1 °F 78% 30.00 in 10.0 mi WSW 3.5 mph - N/A   Partly Cloudy
11:54 PM 19.9 °F - 15.1 °F 81% 30.01 in 10.0 mi Calm Calm - N/A   Clear